Youngstown, OH

2:05 PM EDT on June 28, 2017 (GMT -0400)
Youngstown-Warren Regional

Weather History for KYNG - June, 2012

Change the Weather History Date:

Wednesday, June 20, 2012

  Actual Average Record
Temperature  
Mean Temperature 79 °F 68 °F  
Max Temperature 90 °F 79 °F 95 °F (1933)
Min Temperature 68 °F 57 °F 40 °F (1970)
Degree Days  
Heating Degree Days 0 2  
Month to date heating degree days 38 59  
Since 1 June heating degree days 38 59  
Since 1 July heating degree days 5084 6339  
Cooling Degree Days 14 4  
Month to date cooling degree days 86 59  
Year to date cooling degree days 187 98  
Since 1 June cooling degree days 86 59  
Growing Degree Days 29 (Base 50)    
Moisture  
Dew Point 64 °F    
Average Humidity 63    
Maximum Humidity 84    
Minimum Humidity 41    
Precipitation  
Precipitation 0.00 in 0.13 in 1.74 in (1987)
Month to date precipitation 2.62 2.57  
Year to date precipitation 17.85 17.36  
Snow  
Snow 0.00 in 0.00 in - ()
Month to date snowfall 0.0 0.0  
Since 1 June snowfall 0.0 0.0  
Since 1 July snowfall 56.5 62.7  
Snow Depth 0.00 in    
Sea Level Pressure  
Sea Level Pressure 30.10 in    
Wind  
Wind Speed 5 mph (SW)    
Max Wind Speed 14 mph    
Max Gust Speed 20 mph    
Visibility 10 miles    
Events      
T = Trace of Precipitation, MM = Missing Value Source: NWS Daily Summary

Daily Weather History Graph

Daily Weather History Graph

Search for Another Location

Airport or City:

Trip Planner

Search our weather history database for the weather conditions in past years. The results will help you decide how hot, cold, wet, or windy it might be!

Date:

Astronomy

Jun. 20, 2012 Rise Set
Actual Time 5:49 AM EDT 8:59 PM EDT
Civil Twilight 5:15 AM EDT 9:33 PM EDT
Nautical Twilight 4:32 AM EDT 10:16 PM EDT
Astronomical Twilight 3:40 AM EDT 11:08 PM EDT
Moon 6:48 AM EDT (6/20) 9:43 PM EDT (6/20)
Length of Visible Light 16h 17m
Length of Day
15h 09m
New Moon, 1% of the Moon is Illuminated
Jun 20
New Moon
Jun 26
First Quarter
Jul 3
Full
Jul 10
Last Quarter
Jul 19
New

Hourly Weather History & Observations

Time (EDT) Temp. Heat Index Dew Point Humidity Pressure Visibility Wind Dir Wind Speed Gust Speed Precip Events Conditions
12:51 AM 75.0 °F - 64.0 °F 69% 30.10 in 10.0 mi SSW 4.6 mph - N/A   Clear
1:51 AM 73.0 °F - 64.0 °F 73% 30.09 in 10.0 mi SW 4.6 mph - N/A   Clear
2:51 AM 72.0 °F - 63.0 °F 73% 30.10 in 10.0 mi SSW 4.6 mph - N/A   Clear
3:51 AM 71.1 °F - 63.0 °F 75% 30.09 in 10.0 mi SSW 4.6 mph - N/A   Clear
4:51 AM 71.1 °F - 63.0 °F 75% 30.11 in 10.0 mi SSW 3.5 mph - N/A   Clear
5:51 AM 68.0 °F - 63.0 °F 84% 30.13 in 8.0 mi SSW 3.5 mph - N/A   Clear
6:51 AM 70.0 °F - 64.0 °F 81% 30.14 in 9.0 mi Calm Calm - N/A   Clear
7:51 AM 73.9 °F - 64.9 °F 73% 30.16 in 10.0 mi Calm Calm - N/A   Partly Cloudy
8:51 AM 79.0 °F - 64.9 °F 62% 30.16 in 10.0 mi WSW 4.6 mph - N/A   Clear
9:51 AM 82.9 °F 85.4 °F 66.9 °F 58% 30.16 in 10.0 mi West 5.8 mph - N/A   Clear
10:51 AM 84.9 °F 86.6 °F 64.9 °F 51% 30.16 in 10.0 mi West 3.5 mph - N/A   Partly Cloudy
11:51 AM 87.1 °F 88.3 °F 64.0 °F 46% 30.14 in 10.0 mi Variable 5.8 mph - N/A   Scattered Clouds
12:51 PM 87.1 °F 88.3 °F 64.0 °F 46% 30.14 in 10.0 mi West 6.9 mph - N/A   Mostly Cloudy
1:51 PM 87.1 °F 88.3 °F 64.0 °F 46% 30.12 in 10.0 mi West 5.8 mph - N/A   Mostly Cloudy
2:51 PM 89.1 °F 90.0 °F 63.0 °F 42% 30.10 in 10.0 mi SSW 10.4 mph - N/A   Scattered Clouds
3:51 PM 89.1 °F 90.0 °F 63.0 °F 42% 30.08 in 10.0 mi WSW 6.9 mph - N/A   Scattered Clouds
4:51 PM 89.1 °F 90.0 °F 63.0 °F 42% 30.07 in 10.0 mi SW 10.4 mph - N/A   Scattered Clouds
5:51 PM 89.1 °F 89.3 °F 62.1 °F 40% 30.06 in 10.0 mi WSW 9.2 mph - N/A   Partly Cloudy
6:51 PM 88.0 °F 88.7 °F 63.0 °F 43% 30.05 in 10.0 mi SSW 5.8 mph - N/A   Partly Cloudy
7:51 PM 84.0 °F 85.4 °F 64.0 °F 51% 30.04 in 10.0 mi SW 5.8 mph - N/A   Clear
8:51 PM 81.0 °F 82.5 °F 64.0 °F 56% 30.03 in 10.0 mi SSW 4.6 mph - N/A   Clear
9:51 PM 78.1 °F - 64.0 °F 62% 30.03 in 10.0 mi SSW 4.6 mph - N/A   Clear
10:51 PM 78.1 °F - 64.0 °F 62% 30.01 in 10.0 mi South 5.8 mph - N/A   Clear
11:51 PM 77.0 °F - 64.0 °F 64% 30.01 in 10.0 mi South 5.8 mph - N/A   Clear